This is the latest recevied weather packets stored in our database for station/object CX2SA-13. If no packets are shown the sender has not sent any weather packets the latest 10 day(s).
| Time | Temp. | Humidity | Pressure | Rain* | Wind** | Luminosity | Snow |
|---|---|---|---|---|---|---|---|
| 1778149784 | 26.67° C | 81% | 994.5 hPa | 0 mm | - | - | - |
| 1778148885 | 26.67° C | 81% | 994.5 hPa | 0 mm | - | - | - |
| 1778147984 | 26.67° C | 82% | 994.5 hPa | 0 mm | - | - | - |
| 1778147085 | 26.11° C | 82% | 994.2 hPa | 0 mm | - | - | - |
| 1778146186 | 26.11° C | 82% | 994.9 hPa | 0 mm | - | - | - |
| 1778145284 | 26.11° C | 82% | 994.9 hPa | 0 mm | - | - | - |
| 1778144385 | 26.11° C | 82% | 995.2 hPa | 0 mm | - | - | - |
| 1778143486 | 26.67° C | 82% | 995.6 hPa | 0 mm | - | - | - |
| 1778142584 | 26.11° C | 82% | 995.6 hPa | 0 mm | - | - | - |
| 1778141685 | 26.11° C | 83% | 996.2 hPa | 0 mm | - | - | - |
| 1778140784 | 26.11° C | 83% | 996.6 hPa | 0 mm | - | - | - |
| 1778139884 | 26.11° C | 83% | 996.6 hPa | 0 mm | - | - | - |
| 1778138985 | 26.11° C | 84% | 996.9 hPa | 0 mm | - | - | - |
| 1778138084 | 25.56° C | 86% | 997.2 hPa | 0 mm | - | - | - |
| 1778137185 | 25° C | 88% | 997.6 hPa | 0 mm | - | - | - |
| 1778136285 | 25° C | 88% | 997.9 hPa | 0 mm | - | - | - |
| 1778135384 | 24.44° C | 90% | 998.3 hPa | 0 mm | - | - | - |
| 1778134485 | 24.44° C | 90% | 997.9 hPa | 0 mm | - | - | - |
| 1778133583 | 24.44° C | 91% | 997.9 hPa | 0 mm | - | - | - |
| 1778132684 | 24.44° C | 91% | 997.9 hPa | 0 mm | - | - | - |
| 1778131785 | 24.44° C | 90% | 998.9 hPa | 0 mm | - | - | - |
| 1778130884 | 24.44° C | 89% | 1000 hPa | 0 mm | - | - | - |
| 1778129984 | 24.44° C | 89% | 1000 hPa | 0 mm | - | - | - |
| 1778129085 | 24.44° C | 89% | 1000 hPa | 0 mm | - | - | - |
| 1778128184 | 25° C | 89% | 1001 hPa | 0 mm | - | - | - |
* Rain since midnight (hover to see other rain measurements)
** Current wind speed in m/s (hover to see current wind gust speed)